TimeAKDT,TemperatureF,Dew PointF,Humidity,Sea Level PressureIn,VisibilityMPH,Wind Direction,Wind SpeedMPH,Gust SpeedMPH,PrecipitationIn,Events,Conditions,WindDirDegrees,DateUTC
12:16 AM,48.2,30.2,50,29.38,10.0,NNE,6.9,-,N/A,,Mostly Cloudy,20,2014-04-18 08:16:00
12:36 AM,48.2,28.4,46,29.38,10.0,North,8.1,-,N/A,,Overcast,10,2014-04-18 08:36:00
12:56 AM,48.2,30.2,50,29.38,10.0,NNE,9.2,-,N/A,,Overcast,20,2014-04-18 08:56:00
1:16 AM,48.2,28.4,46,29.38,10.0,North,6.9,-,N/A,,Mostly Cloudy,360,2014-04-18 09:16:00
1:36 AM,48.2,28.4,46,29.38,10.0,North,9.2,-,N/A,,Mostly Cloudy,10,2014-04-18 09:36:00
1:56 AM,48.2,28.4,46,29.37,10.0,NNE,9.2,-,N/A,,Mostly Cloudy,20,2014-04-18 09:56:00
2:16 AM,48.2,28.4,46,29.37,10.0,NNE,8.1,-,N/A,,Mostly Cloudy,20,2014-04-18 10:16:00
2:36 AM,46.4,28.4,50,29.37,10.0,NNE,10.4,-,N/A,,Overcast,20,2014-04-18 10:36:00
2:56 AM,46.4,28.4,50,29.37,10.0,North,5.8,-,N/A,,Overcast,10,2014-04-18 10:56:00
3:16 AM,46.4,28.4,50,29.37,10.0,Calm,Calm,-,N/A,,Scattered Clouds,0,2014-04-18 11:16:00
3:36 AM,46.4,28.4,50,29.37,10.0,North,5.8,-,N/A,,Mostly Cloudy,360,2014-04-18 11:36:00
3:56 AM,46.4,28.4,50,29.37,10.0,North,4.6,-,N/A,,Overcast,350,2014-04-18 11:56:00
4:16 AM,46.4,28.4,50,29.36,10.0,North,5.8,-,N/A,,Overcast,360,2014-04-18 12:16:00
4:36 AM,48.2,28.4,46,29.36,10.0,North,4.6,-,N/A,,Overcast,360,2014-04-18 12:36:00
4:56 AM,48.2,28.4,46,29.36,10.0,North,5.8,-,N/A,,Overcast,360,2014-04-18 12:56:00
5:16 AM,48.2,28.4,46,29.36,10.0,NNE,6.9,-,N/A,,Overcast,20,2014-04-18 13:16:00
5:36 AM,48.2,28.4,46,29.36,10.0,North,3.5,-,N/A,,Overcast,10,2014-04-18 13:36:00
5:56 AM,48.2,28.4,46,29.36,10.0,ENE,3.5,-,N/A,,Overcast,60,2014-04-18 13:56:00
6:16 AM,50.0,28.4,43,29.35,10.0,NNW,3.5,-,N/A,,Overcast,340,2014-04-18 14:16:00
6:36 AM,48.2,28.4,46,29.35,10.0,Calm,Calm,-,N/A,,Overcast,0,2014-04-18 14:36:00
6:56 AM,48.2,28.4,46,29.36,10.0,NNW,5.8,-,N/A,,Overcast,340,2014-04-18 14:56:00
7:16 AM,48.2,28.4,46,29.36,10.0,NNW,8.1,-,N/A,,Overcast,340,2014-04-18 15:16:00
7:36 AM,48.2,28.4,46,29.36,9.0,North,4.6,-,N/A,,Overcast,360,2014-04-18 15:36:00
7:56 AM,50.0,28.4,43,29.36,10.0,NW,5.8,-,N/A,,Overcast,320,2014-04-18 15:56:00
8:16 AM,50.0,28.4,43,29.36,10.0,NNW,6.9,-,N/A,,Overcast,330,2014-04-18 16:16:00
8:36 AM,51.8,28.4,41,29.36,10.0,NNW,5.8,-,N/A,,Overcast,330,2014-04-18 16:36:00
8:56 AM,50.0,28.4,43,29.37,10.0,NNW,5.8,-,N/A,,Overcast,340,2014-04-18 16:56:00
9:16 AM,50.0,28.4,43,29.37,10.0,NNW,5.8,-,N/A,,Overcast,330,2014-04-18 17:16:00
9:36 AM,50.0,28.4,43,29.36,10.0,NW,6.9,-,N/A,,Mostly Cloudy,320,2014-04-18 17:36:00
9:56 AM,50.0,28.4,43,29.37,10.0,North,4.6,-,N/A,,Overcast,360,2014-04-18 17:56:00
10:16 AM,50.0,28.4,43,29.37,10.0,Calm,Calm,-,N/A,,Mostly Cloudy,0,2014-04-18 18:16:00
10:36 AM,50.0,28.4,43,29.37,10.0,North,4.6,-,N/A,,Mostly Cloudy,10,2014-04-18 18:36:00
10:56 AM,50.0,30.2,47,29.37,10.0,Calm,Calm,-,N/A,,Overcast,0,2014-04-18 18:56:00
11:16 AM,51.8,30.2,44,29.37,10.0,North,4.6,-,N/A,,Mostly Cloudy,360,2014-04-18 19:16:00
11:36 AM,53.6,32.0,44,29.37,10.0,North,8.1,-,N/A,,Overcast,360,2014-04-18 19:36:00
11:56 AM,53.6,32.0,44,29.38,10.0,North,6.9,-,N/A,,Overcast,10,2014-04-18 19:56:00
12:16 PM,53.6,30.2,41,29.38,10.0,North,6.9,-,N/A,,Overcast,10,2014-04-18 20:16:00
12:36 PM,55.4,32.0,41,29.38,10.0,Calm,Calm,-,N/A,,Overcast,0,2014-04-18 20:36:00
12:56 PM,57.2,32.0,38,29.38,10.0,Calm,Calm,-,N/A,,Mostly Cloudy,0,2014-04-18 20:56:00
1:16 PM,57.2,33.8,41,29.38,10.0,Calm,Calm,-,N/A,,Overcast,0,2014-04-18 21:16:00
1:36 PM,57.2,30.2,36,29.38,10.0,Calm,Calm,-,N/A,,Scattered Clouds,0,2014-04-18 21:36:00
1:56 PM,57.2,30.2,36,29.39,10.0,Calm,Calm,-,N/A,,Clear,0,2014-04-18 21:56:00
2:16 PM,59.0,28.4,31,29.39,10.0,Calm,Calm,-,N/A,,Clear,0,2014-04-18 22:16:00
2:36 PM,60.8,33.8,36,29.39,10.0,NW,3.5,-,N/A,,Clear,320,2014-04-18 22:36:00
2:56 PM,62.6,33.8,34,29.39,10.0,NNW,3.5,-,N/A,,Clear,330,2014-04-18 22:56:00
3:16 PM,60.8,32.0,34,29.40,10.0,NW,3.5,-,N/A,,Clear,320,2014-04-18 23:16:00
3:36 PM,59.0,32.0,36,29.40,10.0,Calm,Calm,-,N/A,,Clear,0,2014-04-18 23:36:00
3:56 PM,62.6,33.8,34,29.40,10.0,Calm,Calm,-,N/A,,Clear,0,2014-04-18 23:56:00
4:16 PM,60.8,30.2,31,29.40,10.0,ESE,3.5,-,N/A,,Clear,120,2014-04-19 00:16:00
4:36 PM,55.4,33.8,44,29.40,10.0,NE,6.9,-,N/A,,Clear,40,2014-04-19 00:36:00
4:56 PM,60.8,30.2,31,29.40,10.0,NE,6.9,-,N/A,,Partly Cloudy,40,2014-04-19 00:56:00
5:16 PM,60.8,30.2,31,29.40,10.0,NE,9.2,-,N/A,,Clear,40,2014-04-19 01:16:00
5:36 PM,57.2,30.2,36,29.40,10.0,NNE,5.8,-,N/A,,Clear,30,2014-04-19 01:36:00
5:56 PM,55.4,33.8,44,29.39,10.0,North,10.4,-,N/A,,Clear,350,2014-04-19 01:56:00
6:16 PM,53.6,32.0,44,29.39,10.0,North,9.2,-,N/A,,Clear,350,2014-04-19 02:16:00
6:36 PM,55.4,32.0,41,29.39,10.0,NNW,8.1,-,N/A,,Clear,340,2014-04-19 02:36:00
6:56 PM,57.2,33.8,41,29.40,10.0,North,6.9,-,N/A,,Clear,350,2014-04-19 02:56:00
7:16 PM,55.4,32.0,41,29.40,10.0,North,9.2,-,N/A,,Clear,360,2014-04-19 03:16:00
7:36 PM,55.4,30.2,38,29.40,10.0,North,9.2,-,N/A,,Clear,350,2014-04-19 03:36:00
7:56 PM,55.4,32.0,41,29.40,10.0,North,10.4,-,N/A,,Mostly Cloudy,360,2014-04-19 03:56:00
8:16 PM,55.4,32.0,41,29.42,10.0,East,11.5,18.4,N/A,,Overcast,100,2014-04-19 04:16:00
8:36 PM,48.2,30.2,50,29.42,10.0,ESE,8.1,-,N/A,,Overcast,110,2014-04-19 04:36:00
8:56 PM,46.4,33.8,62,29.43,10.0,East,10.4,-,N/A,,Mostly Cloudy,80,2014-04-19 04:56:00
9:16 PM,39.2,32.0,75,29.43,5.0,ESE,11.5,-,0.05,,Overcast,120,2014-04-19 05:16:00
9:36 PM,39.2,33.8,81,29.42,9.0,ENE,5.8,-,0.07,,Overcast,70,2014-04-19 05:36:00
9:56 PM,39.2,33.8,81,29.42,10.0,NE,5.8,-,0.07,,Overcast,40,2014-04-19 05:56:00
10:16 PM,37.4,33.8,87,29.43,10.0,NNE,6.9,-,N/A,,Overcast,30,2014-04-19 06:16:00
10:36 PM,37.4,30.2,75,29.43,10.0,NE,9.2,-,N/A,,Overcast,50,2014-04-19 06:36:00
10:56 PM,37.4,32.0,81,29.43,10.0,NE,12.7,-,N/A,,Overcast,50,2014-04-19 06:56:00
11:16 PM,35.6,32.0,87,29.43,10.0,ENE,13.8,-,N/A,,Overcast,70,2014-04-19 07:16:00
11:36 PM,37.4,33.8,87,29.44,10.0,ENE,12.7,-,N/A,,Mostly Cloudy,70,2014-04-19 07:36:00
11:56 PM,37.4,32.0,81,29.43,10.0,NNE,9.2,-,N/A,,Overcast,30,2014-04-19 07:56:00